Regional Weather Roundup
Issued by NWS Grand Forks, ND

Home | Current Version | Previous Version | Text Only | Print | Product List | Glossary Off
Versions: 1 2 3 4 5 6 7 8 9 10 11 12 13 14 15 16 17 18 19 20 21 22 23 24 25 26 27 28 29 30 31 32 33 34 35 36 37 38 39 40 41 42 43 44 45 46 47 48 49 50

000
ASUS43 KFGF 041810
RWRFGF
PRAIRIE TO PINES  WEATHER ROUNDUP
NATIONAL WEATHER SERVICE EASTERN NORTH DAKOTA/GRAND FORKS ND
1200 PM CST SUN DEC 04 2016

 **SATELLITE DATA USED TO AUGMENT SKY COVER AT AUTOMATED STATIONS**
 *****  WEATHER ACROSS EASTERN NORTH DAKOTA  *****

CITY           SKY/WX    TMP DP  RH WIND       PRES   REMARKS
GRAND FORKS    CLOUDY    31  26  82 W15       29.68F WCI  20
6HR MIN TEMP:  31; 6HR MAX TEMP:  35; 6HR PCP: TRACE;

GRAND FRKS AFB CLOUDY    30  26  85 W10       29.67F WCI  21
GRAND FRKS NWS   N/A     30 N/A N/A W15         N/A  WCI  19
DEVILS LAKE    LGT SNOW  28  25  88 W24       29.66F FOG     WCI  14
6HR MIN TEMP:  26; 6HR MAX TEMP:  32; 6HR PCP: TRACE;

FARGO          CLOUDY    34  32  92 SW8       29.70F
WAHPETON ARPT  CLOUDY    34  32  93 W10       29.73F
$$

 ***** WEATHER ACROSS CENTRAL AND WESTERN NORTH DAKOTA  *****

CITY           SKY/WX    TMP DP  RH WIND       PRES   REMARKS
BISMARCK       SUNNY     32  24  72 W14       29.75F WCI  22
6HR MIN TEMP:  30; 6HR MAX TEMP:  33; 6HR PCP: TRACE;

MINOT          CLOUDY    30  27  88 W15       29.69F WCI  19
6HR MIN TEMP:  26; 6HR MAX TEMP:  32;

JAMESTOWN      CLOUDY    33  28  81 W14G22    29.70F WCI  23
6HR MIN TEMP:  31; 6HR MAX TEMP:  34;

MINOT AFB      CLOUDY    29  26  87 NW16      29.68F WCI  18
GARRISON         N/A     28  22  78 W10       29.71F WCI  19
WILLISTON      SUNNY     27  21  78 SW10      29.72F WCI  17
6HR MIN TEMP:  18; 6HR MAX TEMP:  27;

DICKINSON      SUNNY     29  20  69 W16       29.71F WCI  17
6HR MIN TEMP:  18; 6HR MAX TEMP:  29;

HETTINGER      SUNNY     31  22  69 W7        29.77F WCI  24
6HR MIN TEMP:  17; 6HR MAX TEMP:  32;

$$

 *****  OTHER AIRPORT OBSERVATIONS IN OUR AREA  *****

CITY           SKY/WX    TMP DP  RH WIND       PRES   REMARKS
WALHALLA         N/A     30  30 100 W9        29.63F WCI  22
GRAFTON AIRPOR   N/A     32  32 100 SW10      29.67F WCI  24
VALLEY CITY AR CLOUDY    32  32 100 NW15      29.72F WCI  22
CANDO          CLOUDY    28  27  93 W21       29.67F WCI  15
CAVALIER APRT    N/A     32  28  86 SW9       29.64S WCI  24
GWINNER          N/A     36  32  87 W13       29.74S
SHEYENNE NWR     N/A     36  32  85 W9        29.95S
ROLLA          MOCLDY    28  27  93 W14       29.63F WCI  17
 ***** THE ABOVE OBSERVATIONS ARE NON NWS ARE NOT QUALITY
       CONTROLLED AND MAY MIS-REPORT RAIN FOR SNOW...
$$

  *****  WEATHER ACROSS NORTHERN MINNESOTA  *****

CITY           SKY/WX    TMP DP  RH WIND       PRES   REMARKS
FLAG ISLAND    LGT SNOW  30  28  93 SE17      29.69F WCI  18
WARROAD        LGT SNOW  32  28  86 SE14      29.68F WCI  22
ROSEAU         CLOUDY    34  28  80 SE12      29.66F
HALLOCK        CLOUDY    34  30  86 SW12      29.64F
THF RVR FALLS  CLOUDY    32  31  96 S12       29.68F WCI  23
6HR MIN TEMP:  32; 6HR MAX TEMP:  33; 6HR PCP: TRACE;

BAUDETTE       FLURRIES  31  28  89 SE14      29.70F WCI  21
6HR MIN TEMP:  28; 6HR MAX TEMP:  31; 6HR PCP: TRACE;

WASKISH        LGT SNOW  32  30  93 SE10      29.72F WCI  24
CROOKSTON      CLOUDY    34  32  93 SW8       29.69F FOG
GREENBUSH NDAW   N/A     32  32 100 S12         N/A  WCI  23
$$
  *****  WEATHER ACROSS CENTRAL AND WEST MINNESOTA  *****

CITY           SKY/WX    TMP DP  RH WIND       PRES   REMARKS
FOSSTON        LGT SNOW  30  30 100 S12G17    29.68F WCI  21
BEMIDJI        LGT SNOW  32  31  96 SE9       29.69F WCI  24
PARK RAPIDS    LGT SNOW  34  30  85 S12       29.70F FOG
6HR MIN TEMP:  31; 6HR MAX TEMP:  34; 6HR PCP:  0.02;

ELBOW LAKE     CLOUDY    32  32  99 SW8       29.73F WCI  25
WADENA         LGT SNOW  32  30  93 S8        29.71F WCI  25
DETROIT LAKES  CLOUDY    32  32 100 S10       29.70F WCI  24
MOORHEAD       CLOUDY    32  30  93 SW7       29.72F
FERGUS FALLS   CLOUDY    32  32 100 SW8       29.76F FOG     WCI  25
MORRIS MN      PTSUNNY   36  34  93 SW9       29.74F
STAPLES        CLOUDY    30  30 100 S12       29.73F FOG     WCI  21
$$
  *****  WEATHER ELSEWHERE ACROSS MINNESOTA  *****

CITY           SKY/WX    TMP DP  RH WIND       PRES   REMARKS
DULUTH         LGT SNOW  31  29  92 SE9       29.81F FOG     WCI  23
6HR MIN TEMP:  27; 6HR MAX TEMP:  31; 6HR PCP:  0.14;

INTRNTL FALLS  CLOUDY    30  27  88 SE9       29.76F FOG     WCI  22
6HR MIN TEMP:  27; 6HR MAX TEMP:  30; 6HR PCP:  0.06;

ELY            LGT SNOW  30  28  93 SE8       29.81F WCI  23
CLOQUET        LGT SNOW  30  28  93 SE6       29.81F WCI  24
WHEATON        NOT AVBL
BRAINERD       CLOUDY    32  31  96 S9        29.75F FOG     WCI  24
6HR MIN TEMP:  30; 6HR MAX TEMP:  32; 6HR PCP:  0.01;

HIBBING        LGT SNOW  29  27  92 SE10      29.78F FOG     WCI  20
6HR MIN TEMP:  25; 6HR MAX TEMP:  29; 6HR PCP:  0.01;

ALEXANDRIA     CLOUDY    33  32  96 SW12      29.73F FOG     WCI  24
6HR MIN TEMP:  33; 6HR MAX TEMP:  33; 6HR PCP: TRACE;

SAINT CLOUD    CLOUDY    33  33 100 S12       29.78F WCI  24
6HR MIN TEMP:  32; 6HR MAX TEMP:  33; 6HR PCP: TRACE;

MINNEAPOLIS    CLOUDY    35  32  88 SW8       29.83F
6HR MIN TEMP:  32; 6HR MAX TEMP:  35; 6HR PCP:  0.03;

$$

  *****  WEATHER ACROSS SOUTH DAKOTA  *****

CITY           SKY/WX    TMP DP  RH WIND       PRES   REMARKS
SIOUX FALLS    SUNNY     41  32  70 W8        29.85F
6HR MIN TEMP:  31; 6HR MAX TEMP:  41;

BROOKINGS      SUNNY     38  31  76 W15       29.79F
WATERTOWN      CLOUDY    35  29  78 W18       29.77F WCI  24
6HR MIN TEMP:  29; 6HR MAX TEMP:  35;

HURON          SUNNY     41  33  73 W12       29.83F
6HR MIN TEMP:  26; 6HR MAX TEMP:  41;

SISSETON         N/A     35  29  78 W16       29.74S
ABERDEEN       MOSUNNY   38  30  73 W17       29.78F
6HR MIN TEMP:  27; 6HR MAX TEMP:  38;

MITCHELL       SUNNY     41  32  70 W10       29.87F
PIERRE         SUNNY     36  25  64 W8        29.83F
6HR MIN TEMP:  24; 6HR MAX TEMP:  36;

MOBRIDGE       SUNNY     34  22  61 NW7       29.78F
RAPID CITY     SUNNY     44  17  33 SW8       29.82F
6HR MIN TEMP:  22; 6HR MAX TEMP:  45;

$$

  *****  SOME WEATHER IN NEARBY STATES *****

CITY           SKY/WX    TMP DP  RH WIND       PRES   REMARKS
GLASGOW MT     SUNNY     34  25  69 S9        29.66F
6HR MIN TEMP:  17; 6HR MAX TEMP:  35;

GREAT FALLS MT MOSUNNY   38  24  57 SW21G32   29.58F
6HR MIN TEMP:  30; 6HR MAX TEMP:  38;

CHEYENNE WY    CLOUDY    36   7  29 S16G22    29.91F
6HR MIN TEMP:  24; 6HR MAX TEMP:  36;

SCOTTSBLUFF NE SUNNY     46  15  28 W16G24    29.91F
6HR MIN TEMP:  14; 6HR MAX TEMP:  46;

OMAHA NE       MOSUNNY   36  31  82 SW7       29.96F
6HR MIN TEMP:  34; 6HR MAX TEMP:  37;

DES MOINES IA  CLOUDY    36  34  92 SW8       29.94F
6HR MIN TEMP:  33; 6HR MAX TEMP:  36; 6HR PCP:  0.18;

DAVENPORT IA   HVY SNOW  31  30  96 SE7       29.99F VSB 1/4 WCI  24
6HR MIN TEMP:  31; 6HR MAX TEMP:  32; 6HR PCP:  0.25;

CHICAGO IL     SNOW      31  30  96 SE5       30.03F VSB 1/4
6HR MIN TEMP:  31; 6HR MAX TEMP:  33; 6HR PCP:  0.08;

EAU CLAIRE WI  LGT SNOW  32  30  92 S12       29.87F VSB 3/4 WCI  23
6HR MIN TEMP:  30; 6HR MAX TEMP:  32; 6HR PCP:  0.10;

LA CROSSE WI   LGT SNOW  34  32  92 S10       29.92F VSB 3/4
6HR MIN TEMP:  34; 6HR MAX TEMP:  34; 6HR PCP:  0.17;

$$

  *****  SOME NATIONAL WEATHER *****

CITY           SKY/WX    TMP DP  RH WIND       PRES   REMARKS
LA GUARDIA NY  MOSUNNY   46  22  38 NW8       30.19F
6HR MIN TEMP:  41; 6HR MAX TEMP:  46;

RALEIGH NC     CLOUDY    46  33  60 S3        30.24F
6HR MIN TEMP:  42; 6HR MAX TEMP:  47; 6HR PCP: TRACE;

ATLANTA GA     LGT RAIN  45  45 100 E10       30.09F FOG
6HR MIN TEMP:  44; 6HR MAX TEMP:  46; 6HR PCP:  0.54;

NEW ORLEANS LA CLOUDY    67  67 100 S7        29.90S
6HR MIN TEMP:  61; 6HR MAX TEMP:  67; 6HR PCP:  0.13;

OKLAHOMA CITY  CLOUDY    48  40  73 N12       30.07F
6HR MIN TEMP:  43; 6HR MAX TEMP:  48;

ALBUQUERQUE NM SUNNY     39  13  34 VRB3      30.18F
6HR MIN TEMP:  28; 6HR MAX TEMP:  39;

SALT LAKE CITY PTSUNNY   35  20  54 S15       30.12F
6HR MIN TEMP:  27; 6HR MAX TEMP:  35;

LOS ANGELES CA MOSUNNY   62  45  53 SE5       30.09R
6HR MIN TEMP:  46; 6HR MAX TEMP:  62;

BOISE ID       CLOUDY  C1F1C2F2C3F3C4F4C5F5C6F6C7F7C8F8C9F9CaFaCbFbCcFcCd!


USA.gov is the U.S. government's official web portal to all federal, state and local government web resources and services.